カタログに戻る

INTELSAT 704

運用中通信GEO
NORAD 23461·PAYLOAD· XX

打ち上げ Jan 10, 1995 から Cape Canaveral Space Force Station

Loading…

TLE

最新Source: Space-Track

元期: Sep 14, 2026, 21:00 UTC

1 23461U 95001A   26257.87502720  .00000038  00000-0  00000-0 0  9995
2 23461  12.0156  34.9258 0013399 167.6117 180.8613  0.99177053115362

AllMySatでINTELSAT 704をリアルタイム追跡

Download on the App Store